Tracking 19846 objects as of 18-Sep-2019
HD Live streaming from Space Station
objects crossing your sky now

FENGYUN 1C DEB

Track FENGYUN 1C DEB now!
10-day predictions


NORAD ID: 32171
Int'l Code: 1999-025CTR
Perigee: 758.2 km
Apogee: 1,570.4 km
Inclination: 102.8 °
Period: 108.5 minutes
Semi major axis: 7535 km
RCS: 0.0135 m2 (small)
Launch date: May 10, 1999
Source: People's Republic of China (PRC)
Launch site: Taiyaun Space Center, China (TSC)

Note: This is SATELLITE DEBRIS
aabbcc
Your satellite tracking list
Your tracking list is empty




NASA's NSSDC Master Catalog

Two Line Element Set (TLE):
1 32171U 99025CTR 19258.88832383  .00000629  00000-0  69798-3 0  9996
2 32171 102.8253 276.0843 0538943 172.0304 314.1501 13.27254490588784
Source of the keplerian elements: AFSPC